Weather History for Palmdale, CA

Change the Weather History Date:

Sunday, April 7, 2013

  Actual Average Record
Temperature  
Mean Temperature 64 °F 56 °F  
Max Temperature 74 °F 70 °F 98 °F (1989)
Min Temperature 53 °F 41 °F 29 °F (1975)
Degree Days  
Heating Degree Days 1 10  
Month to date heating degree days 18 71  
Since 1 July heating degree days 2428 2692  
Cooling Degree Days 0 0  
Month to date cooling degree days 2 0  
Year to date cooling degree days 9 2  
Growing Degree Days 13 (Base 50)    
Moisture  
Dew Point 37 °F    
Average Humidity 46    
Maximum Humidity 71    
Minimum Humidity 20    
Precipitation  
Precipitation 0.00 in 0.02 in 0.64 in (1952)
Month to date precipitation 0.00 0.12  
Year to date precipitation 0.71 4.63  
Since 1 July precipitation 1.00 7.61  
Snow  
Snow 0.00 in - T in (1958)
Month to date snowfall 0.0  
Since 1 July snowfall 0.0  
Snow Depth 0.00 in    
Sea Level Pressure  
Sea Level Pressure 29.89 in    
Wind  
Wind Speed 22 mph (WNW)    
Max Wind Speed 38 mph    
Max Gust Speed 45 mph    
Visibility 10 miles    
Events      
T = Trace of Precipitation, MM = Missing Value Source: NWS Daily Summary

Daily Weather History Graph

Daily Weather History Graph

Search for Another Location

Airport:

Trip Planner

Search our weather history database for the weather conditions in past years. The results will help you decide how hot, cold, wet, or windy it might be!

Date:

Astronomy

Apr. 07, 2013 Rise Set
Actual Time 6:30 AM PDT 7:18 PM PDT
Civil Twilight 6:05 AM PDT 7:44 PM PDT
Nautical Twilight 5:35 AM PDT 8:14 PM PDT
Astronomical Twilight 5:04 AM PDT 8:45 PM PDT
Moon 4:44 AM PDT (4/7) 5:00 PM PDT (4/7)
Length of Visible Light 13h 38m
Length of Day
12h 47m
Waning Crescent, 7% of the Moon is Illuminated
Apr 7
Waning Crescent
Apr 10
New
Apr 18
First Quarter
Apr 25
Full
May 2
Last Quarter

Hourly Weather History & Observations

Time (PDT) Temp. Dew Point Humidity Pressure Visibility Wind Dir Wind Speed Gust Speed Precip Events Conditions
12:53 AM 57.0 °F 37.0 °F 47% 29.96 in 10.0 mi West 5.8 mph - N/A   Clear
1:53 AM 57.0 °F 39.0 °F 51% 29.96 in 10.0 mi WNW 20.7 mph - N/A   Clear
2:53 AM 55.9 °F 42.1 °F 60% 29.94 in 10.0 mi West 24.2 mph 33.4 mph N/A   Clear
3:53 AM 55.9 °F 42.1 °F 60% 29.93 in 10.0 mi WNW 27.6 mph 34.5 mph N/A   Clear
4:53 AM 54.0 °F 42.1 °F 64% 29.94 in 10.0 mi West 18.4 mph 25.3 mph N/A   Clear
5:53 AM 54.0 °F 43.0 °F 66% 29.93 in 10.0 mi WNW 20.7 mph - N/A   Clear
6:53 AM 53.1 °F 43.0 °F 69% 29.97 in 10.0 mi WNW 12.7 mph 24.2 mph N/A   Clear
7:53 AM 54.0 °F 44.1 °F 69% 29.97 in 10.0 mi WNW 17.3 mph - N/A   Clear
8:53 AM 57.0 °F 41.0 °F 55% 29.98 in 10.0 mi WNW 18.4 mph - N/A   Clear
9:53 AM 61.0 °F 39.9 °F 46% 29.96 in 10.0 mi WNW 18.4 mph - N/A   Clear
10:53 AM 64.0 °F 37.0 °F 37% 29.97 in 10.0 mi WNW 23.0 mph - N/A   Clear
11:53 AM 66.9 °F 36.0 °F 32% 29.95 in 10.0 mi NW 25.3 mph 28.8 mph N/A   Clear
12:53 PM 68.0 °F 34.0 °F 28% 29.93 in 10.0 mi WNW 20.7 mph 25.3 mph N/A   Clear
1:53 PM 72.0 °F 28.9 °F 20% 29.88 in 10.0 mi NW 12.7 mph 20.7 mph N/A   Clear
2:53 PM 73.0 °F 30.0 °F 20% 29.86 in 10.0 mi WNW 24.2 mph 31.1 mph N/A   Clear
3:53 PM 71.1 °F 28.9 °F 21% 29.82 in 10.0 mi WNW 33.4 mph 39.1 mph N/A   Clear
4:53 PM 69.1 °F 34.0 °F 27% 29.81 in 9.0 mi WNW 40.3 mph 44.9 mph N/A   Clear
5:53 PM 66.9 °F 34.0 °F 30% 29.81 in 10.0 mi WNW 28.8 mph 39.1 mph N/A   Clear
6:53 PM 64.9 °F 30.0 °F 27% 29.81 in 10.0 mi NW 18.4 mph - N/A   Clear
7:53 PM 61.0 °F 32.0 °F 34% 29.82 in 10.0 mi West 26.5 mph 35.7 mph N/A   Clear
8:53 PM 61.0 °F 28.9 °F 30% 29.81 in 10.0 mi WNW 21.9 mph - N/A   Clear
9:53 PM 60.1 °F 37.0 °F 42% 29.80 in 10.0 mi West 20.7 mph - N/A   Clear
10:53 PM 59.0 °F 39.0 °F 48% 29.78 in 10.0 mi WNW 16.1 mph - N/A   Clear
11:53 PM 57.9 °F 39.9 °F 51% 29.77 in 10.0 mi West 18.4 mph - N/A   Clear